CZ-6A DEB

Satellite information

Favourite Embed

Satellite Type and Status

DEBRISIN ORBIT

Key statistics

Satellite CZ-6A DEB at a glance.

Uptime

444

Days in orbit

Revolutions

≈ 14.2

Per day

Orbit

LEO

Low Earth Orbit

Inclination

89.1

Latest

Satellite identification and parameters

Extended collection of information and parameters for CZ-6A DEB.

Object identification

Identified? True

Debris? True

Object name: CZ-6A DEB

International designator: 2024-140LK

Object number (NORAD): 60960

Object ID (CCSDS): 60960

Country: PEOPLES REPUBLIC OF CHINA (PRC)

Current information (Y/N): Y

RCS size: MEDIUM

Orbital parameters

Period: 101.395 minutes

Inclination: 89.0772 deg

SMA: 7202.834 km

Apoapsis: 858.275 km

Periapsis: 791.123 km

RAAN: 305.5201 deg

Eccentricy: 0.00466152

Argument of periapsis: 210.9136 deg

Mean anomaly: 148.9309 deg

Mean motion: 14.20194003 rev/day

Mean motion (dot): 0.00001433 rev/day2

B* drag term: 0.00065835827 1/REarth

Two-line elements (TLE)

Creation date: Oct. 24, 2025, 2:48 a.m.

Reference frame: TEME

Reference center: EARTH

Epoch: Oct. 23, 2025, 11:20 p.m. UTC

TLE line 0: 0 CZ-6A DEB

TLE line 1: 1 60960U 24140LK 25296.97238492 .00001433 00000-0 65836-3 0 9992

TLE line 2: 2 60960 89.0772 305.5201 0046615 210.9136 148.9309 14.20194003 61056

Live tracking on map

Real-time ground track for satellite CZ-6A DEB.

In-orbit conjunctions

A list of the most updated potential collisions computed for object CZ-6A DEB.

Target Orbit TCA Probability of collision Miss distance Type
CZ-6A DEB SSO 2025-06-13 07:22:32 0.0002183135 221.0 (m) DEBRIS
COSMOS 1275 DEB LEO 2025-06-02 14:10:09 0.0001948777 58.0 (m) DEBRIS
SL-3 DEB LEO 2025-03-17 01:25:29 0.0002473826 133.0 (m) DEBRIS
CZ-6A DEB SSO 2025-02-23 02:44:42 0.0001231641 869.0 (m) DEBRIS
MINOTAUR R/B SSO 2025-02-21 00:50:24 0.0002563563 394.0 (m) ROCKET BODY

Associated space launch

18 Low Earth Orbit communication satellites with Ku, Q and V band payloads for the G60 constellation operated by Shanghai Spacecom Satellite Technology (SSST) with funding backed by the Shanghai local government. Initial constellation will consist of 1296 satellites by 2027 with long term plans to expand it to 12000 satellites.

CZ-6A DEB was lifted into orbit during the mission ‘Long March 6A | G60 Polar Group 01’, on board a Long March 6A space rocket.

The launch took place on Aug. 6, 2024, 6:42 a.m. from Launch Complex 9A.

For more information about the launch, click the button.

Launch to space Long March 6A | G60 Polar Group 01
Long March 6A | G60 Polar Group 01

Agency: N/A

Status: Launch Successful

Launch date: Aug. 6, 2024, 6:42 a.m. UTC

Rocket: Long March 6A

Launch pad: Launch Complex 9A

Location: Taiyuan Satellite Launch Center, People's Republic of China

...

Latest news about this satellite

News about space launch
Brightness of first Chinese broadband constellation satellites alarms astronomers

The first satellites of a Chinese broadband constellation are significantly brighter than those of Western systems, posing a new challenge for astronomers.

News about space launch
Chinese rocket stage breaks up into cloud of more than 700 pieces of space debris

HELSINKI — A Chinese Long March 6A rocket’s upper stage has fragmented into a cloud of over 700 pieces of space debris, adding to concerns about long-term orbital safety. China […]

News about space launch
China's Thousand Sails Megaconstellation Kicks Off with Dangerous Debris Field

China's Thousand Sails Megaconstellation Kicks Off with Dangerous Debris Field


Newsletter sign-up

Weekly statistics, charts and insights to help you stay on top of the space industry.